Location: Gleizolles
(44.4833°N, 6.7667°E)
Time: 15:56:53
(UTC+00:00)

Explorer 7 - Pass Details

Date: 16 June 2024
Orbit: 465 x 619 km, 50.3° (Epoch: 12 July)

Event Time Altitude Azimuth Distance (km) Brightness Sun altitude
Rises 19:17:46 0° 289° (WNW) 2,496 12.1 -0.5°
Reaches altitude 10° 19:20:18 10° 271° (W) 1,619 10.3 -0.9°
Maximum altitude 19:23:00 20° 223° (SW) 1,140 8.6 -1.3°
Drops below altitude 10° 19:25:45 10° 175° (S) 1,634 8.9 -1.7°
Sets 19:28:19 0° 158° (SSE) 2,528 9.7 -2.0°
